Weather History for ULMM - January, 2014

Change the Weather History Date:

Friday, January 31, 2014

  Actual Average Record
Temperature  
Mean Temperature -2 °F -  
Max Temperature 8 °F - - ()
Min Temperature -11 °F - - ()
Degree Days  
Heating Degree Days 66    
Moisture  
Dew Point -5 °F    
Average Humidity 79    
Maximum Humidity 85    
Minimum Humidity 62    
Precipitation  
Precipitation 0.00 in - - ()
Sea Level Pressure  
Sea Level Pressure 30.47 in    
Wind  
Wind Speed 3 mph ()    
Max Wind Speed 18 mph    
Max Gust Speed -    
T = Trace of Precipitation, MM = Missing Value Source: Averaged Metar Reports

Daily Weather History Graph

Daily Weather History Graph

Search for Another Location

Airport or City:

Trip Planner

Search our weather history database for the weather conditions in past years. The results will help you decide how hot, cold, wet, or windy it might be!

Date:

Astronomy

Jan. 31, 2014 Rise Set
Actual Time 11:21 AM MSK 4:44 PM MSK
Civil Twilight 10:03 AM MSK 6:02 PM MSK
Nautical Twilight 8:49 AM MSK 7:16 PM MSK
Astronomical Twilight 7:42 AM MSK 8:23 PM MSK
Moon 10:22 AM MSK (1/31) 6:49 PM MSK (1/31)
Length of Visible Light 7h 59m
Length of Day
5h 22m
New Moon, 0% of the Moon is Illuminated
Jan 31
New Moon
Feb 6
First Quarter
Feb 15
Full
Feb 22
Last Quarter
Mar 1
New

Hourly Weather History & Observations

Time (MSK) Temp. Windchill Dew Point Humidity Pressure Visibility Wind Dir Wind Speed Gust Speed Precip Events Conditions
12:00 AM 1.4 °F -8.1 °F -2.2 °F 85% 30.48 in - Variable 4.5 mph - N/A   Clear
12:30 AM 6.8 °F -1.8 °F 1.4 °F 79% 30.48 in - West 4.5 mph - N/A   Clear
1:00 AM 8 °F - 2 °F 66% 30.50 in 31 mi South 15.7 mph - -  
1:00 AM 6.8 °F - 1.4 °F 79% 30.48 in - Variable 2.2 mph - N/A   Clear
1:30 AM 6.8 °F -1.8 °F -0.4 °F 72% 30.48 in - WSW 4.5 mph - N/A   Clear
2:00 AM 5.0 °F -3.9 °F -0.4 °F 78% 30.48 in - WSW 4.5 mph - N/A   Clear
2:30 AM 3.2 °F - -2.2 °F 78% 30.48 in - Calm Calm - N/A   Clear
3:00 AM -2.2 °F - -5.8 °F 85% 30.48 in - Variable 2.2 mph - N/A   Clear
3:30 AM 3.2 °F - -2.2 °F 78% 30.48 in - Calm Calm - N/A   Clear
4:00 AM 4 °F - -1 °F 69% 30.51 in 31 mi SSW 13.4 mph - -  
4:00 AM -5.8 °F - -9.4 °F 84% 30.48 in - Calm Calm - N/A   Clear
4:30 AM -5.8 °F - -11.2 °F 77% 30.48 in - Calm Calm - N/A   Clear
5:00 AM -5.8 °F - -11.2 °F 77% 30.48 in - Calm Calm - N/A   Clear
5:30 AM -7.6 °F -18.5 °F -11.2 °F 84% 30.48 in - Variable 4.5 mph - N/A   Clear
6:00 AM -5.8 °F - -11.2 °F 77% 30.48 in - Calm Calm - N/A   Clear
6:30 AM -7.6 °F - -13.0 °F 77% 30.48 in - Calm Calm - N/A   Clear
7:00 AM 4 °F - -1 °F 70% 30.50 in 31 mi SSW 17.9 mph - -   Clear
7:00 AM -4.0 °F - -9.4 °F 78% 30.48 in - Calm Calm - N/A   Clear
7:30 AM -7.6 °F - -11.2 °F 84% 30.48 in - Calm Calm - N/A   Clear
8:00 AM -7.6 °F - -11.2 °F 84% 30.48 in - Calm Calm - N/A   Clear
8:30 AM -9.4 °F - -16.6 °F 71% 30.48 in - Calm Calm - N/A   Clear
9:00 AM -11.2 °F - -16.6 °F 77% 30.45 in - Variable 2.2 mph - N/A   Clear
9:30 AM -7.6 °F - -13.0 °F 77% 30.45 in - Calm Calm - N/A   Clear
10:00 AM 4 °F - -0 °F 73% 30.49 in 31 mi South 17.9 mph - - Snow Low Drifting Snow
10:00 AM -11.2 °F - -16.6 °F 77% 30.45 in - Calm Calm - N/A   Clear
10:30 AM -5.8 °F - -11.2 °F 77% 30.45 in - Calm Calm - N/A   Clear
11:00 AM -5.8 °F - -9.4 °F 84% 30.45 in - Calm Calm - N/A   Clear
11:30 AM -2.2 °F - -7.6 °F 78% 30.48 in - Calm Calm - N/A   Clear
12:00 PM -0.4 °F - -4.0 °F 85% 30.48 in - Calm Calm - N/A   Clear
12:30 PM 1.4 °F - -2.2 °F 85% 30.48 in - Calm Calm - N/A   Clear
1:00 PM 6 °F - 1 °F 69% 30.51 in 31 mi South 13.4 mph - -   Partly Cloudy
1:00 PM 3.2 °F - -2.2 °F 78% 30.48 in - Calm Calm - N/A   Clear
1:30 PM 1.4 °F - -2.2 °F 85% 30.48 in - Calm Calm - N/A   Clear
2:00 PM 1.4 °F - -2.2 °F 85% 30.48 in - Calm Calm - N/A   Clear
2:30 PM 3.2 °F - -0.4 °F 85% 30.48 in - Calm Calm - N/A   Clear
3:00 PM 1.4 °F - -2.2 °F 85% 30.48 in - Variable 2.2 mph - N/A   Clear
3:30 PM -0.4 °F - -4.0 °F 85% 30.48 in - Calm Calm - N/A   Clear
4:00 PM 8 °F - 1 °F 62% 30.49 in 31 mi SSW 13.4 mph - -   Partly Cloudy
4:00 PM -2.2 °F - -5.8 °F 85% 30.45 in - Calm Calm - N/A   Clear
4:30 PM -0.4 °F - -5.8 °F 78% 30.45 in - Calm Calm - N/A   Clear
5:00 PM 1.4 °F - -4.0 °F 78% 30.45 in - Calm Calm - N/A   Clear
5:30 PM -2.2 °F - -5.8 °F 85% 30.45 in - Calm Calm - N/A   Clear
6:00 PM -2.2 °F - -5.8 °F 85% 30.45 in - Calm Calm - N/A   Clear
6:30 PM -0.4 °F - -5.8 °F 78% 30.45 in - Calm Calm - N/A   Clear
7:00 PM 8 °F - 2 °F 68% 30.48 in 31 mi South 8.9 mph - -   Scattered Clouds
7:00 PM -0.4 °F - -5.8 °F 78% 30.45 in - Calm Calm - N/A   Clear
7:30 PM -0.4 °F - -5.8 °F 78% 30.45 in - Calm Calm - N/A   Clear
8:00 PM 1.4 °F - -4.0 °F 78% 30.45 in - Variable 2.2 mph - N/A   Clear
8:30 PM 1.4 °F - -2.2 °F 85% 30.42 in - Calm Calm - N/A   Clear
9:00 PM 1.4 °F - -2.2 °F 85% 30.42 in - Calm Calm - N/A   Clear
9:30 PM -0.4 °F - -5.8 °F 78% 30.42 in - Calm Calm - N/A   Clear
10:00 PM 7 °F - 2 °F 70% 30.45 in 31 mi SSW 8.9 mph - -   Scattered Clouds
10:00 PM -2.2 °F - -5.8 °F 85% 30.42 in - Calm Calm - N/A   Clear
10:30 PM -2.2 °F - -7.6 °F 78% 30.42 in - Variable 2.2 mph - N/A   Clear
11:00 PM -4.0 °F - -9.4 °F 78% 30.39 in - Variable 2.2 mph - N/A   Clear
11:30 PM -2.2 °F - -5.8 °F 85% 30.39 in - Variable 2.2 mph - N/A   Clear